User: anonymous   Login
Location: Newark
(43.7333°N, 7.4000°E)
Time: 22:55:38
(UTC+00:00)
Language:

Envisat - Orbit

View from above orbital plane
View from above orbital plane
View from above satellite
View from above satellite

Ground track
Ground track

The orbit data is extracted from the following two-line orbital elements,

1 27386U 02009A   20303.80835936  .00000029  00000-0  22886-4 0  9998
2 27386  98.1399 303.8113 0001214  92.5383  80.8049 14.37996992977926
Epoch (UTC): 29 October 2020 19:24:02
Eccentricity: 0.0001214
inclination: 98.1399°
perigee height: 764 km
apogee height: 766 km
right ascension of ascending node: 303.8113°
argument of perigee: 92.5383°
revolutions per day: 14.37996992
mean anomaly at epoch: 80.8049°
orbit number at epoch: 97792

The dashed part of the orbit path shows where the satellite is in the earth's shadow,  

DLR